User: anonymous   Login
Location: Brno
(49.2000°N, 16.6330°E)
Time: 06:19:20
(UTC+02:00)
Language:

Cosmos 1459 Rocket - Orbit

View from above orbital plane
View from above orbital plane
View from above satellite
View from above satellite

Ground track
Ground track

The orbit data is extracted from the following two-line orbital elements,

1 14059U 83042B   16243.23935574  .00000123  00000-0  10603-3 0  9999
2 14059  82.9697 277.8745 0042654   6.0104  38.7498 13.78562689675679
Epoch (UTC): 30 August 2016 05:44:40
Eccentricity: 0.0042654
inclination: 82.9697°
perigee height: 937 km
apogee height: 1000 km
right ascension of ascending node: 277.8745°
argument of perigee: 6.0104°
revolutions per day: 13.78562689
mean anomaly at epoch: 38.7498°
orbit number at epoch: 67567

The dashed part of the orbit path shows where the satellite is in the earth's shadow,  

DLR